Regional Weather Roundup
Issued by NWS

Home | Current Version | Previous Version | Graphics & Text | Print | Product List | Glossary On
Versions: 1 2 3 4 5 6 7 8 9 10 11 12 13 14 15 16 17 18 19 20 21 22 23 24 25 26 27 28 29 30 31 32 33 34 35 36 37 38 39 40 41 42 43 44 45 46 47 48 49 50
000
ASUS43 KMKX 230325
RWRWI

WISCONSIN REGIONAL WEATHER ROUNDUP
NATIONAL WEATHER SERVICE MILWAUKEE/SULLIVAN WI
1000 PM CDT WED OCT 22 2014

NOTE: "FAIR" INDICATES FEW OR NO CLOUDS BELOW 12,000 FEET WITH NO
SIGNIFICANT WEATHER AND/OR OBSTRUCTIONS TO VISIBILITY.

WIZ001-002-006>008-014>016-023>028-230400-
NORTHWEST WISCONSIN

CITY           SKY/WX    TMP DP  RH WIND       PRES   REMARKS
SUPERIOR ARPT  CLOUDY    52  34  51 CALM      30.04F
ASHLAND        CLOUDY    53  33  46 S7        30.08F
HAYWARD        MOCLDY    52  34  50 S14       30.08F
SIREN          CLOUDY    55  35  47 S10G16    30.07S
CUMBERLAND     CLOUDY    50  36  57 SE13      30.08F
RICE LAKE      CLOUDY    51  39  63 SE15      30.11F
CHETEK         CLOUDY    48  42  80 E8        30.11F
LADYSMITH      CLOUDY    52  36  55 S14       30.15F
EAU CLAIRE     CLOUDY    53  39  59 S9G18     30.12F
MENOMONIE      MOCLDY    50  42  73 E7        30.11S
NEW RICHMOND   CLOUDY    54  38  55 S8        30.09R
OSCEOLA        MOCLDY    53  39  59 SE6       30.10R
$$

WIZ003>005-009-010-017-018-230400-
NORTH CENTRAL WISCONSIN

CITY           SKY/WX    TMP DP  RH WIND       PRES   REMARKS
MANITOWISH WTR MOCLDY    45  33  64 S10       30.14F
ARBOR VITAE    MOCLDY    46  35  66 S9        30.16F
WOODRUFF       MOCLDY    46  35  66 S9        30.16F
RHINELANDER    CLEAR     43  35  73 S6        30.19S
EAGLE RIVER    CLEAR     40  32  72 S5        30.17F
LAND O LAKES   CLEAR     42  33  68 S7        30.17F
PHILLIPS       CLOUDY    47  35  62 S7        30.14F
TOMAHAWK       CLEAR     42  34  74 CALM      30.18S
MEDFORD        MOCLDY    44  35  71 SE6       30.17S
MERRILL        CLEAR     41  36  80 SE5       30.19S
$$

WIZ029-030-035-036-043>047-230400-
CENTRAL WISCONSIN

CITY           SKY/WX    TMP DP  RH WIND       PRES   REMARKS
WAUSAU         CLEAR     43  36  76 SE3       30.19S
MOSINEE        CLEAR     43  37  81 SE6       30.20S
MARSHFIELD     CLEAR     45  36  70 SE7       30.18S
STEVENS POINT  CLEAR     39  33  78 E3        30.21S
WAUPACA        CLEAR     43  40  89 SE6       30.23S
WAUTOMA        CLOUDY    41  38  89 SE5       30.23S
WISC RAPIDS    CLEAR     43  35  73 SE7       30.21S
CAMP DOUGLAS   PTCLDY    39  37  93 VRB3      30.18F
$$

WIZ011>013-019>022-031-037>040-048>050-230400-
NORTHEAST WISCONSIN

CITY           SKY/WX    TMP DP  RH WIND       PRES   REMARKS
ANTIGO         CLEAR     37  35  92 SE5       30.21S WCI  33
SHAWANO        CLEAR     41  37  88 SE3       30.24F
OCONTO         CLEAR     42  40  93 S5        30.26S
STURGEON BAY   CLEAR     39  36  87 S6        30.27S WCI  35
GREEN BAY      CLEAR     40  37  89 S3        30.26S
MANITOWOC      CLEAR     36  35  96 CALM      30.28S
APPLETON       PTCLDY    39  37  93 SE7       30.25R WCI  34
CLINTONVILLE   CLEAR     37  36  93 SE5       30.23F WCI  34
OSHKOSH        CLEAR     39  37  92 S7        30.24S WCI  34
$$

WIZ032>034-041-042-053>061-230400-
SOUTHWEST WISCONSIN

CITY           SKY/WX    TMP DP  RH WIND       PRES   REMARKS
LA CROSSE      CLOUDY    54  37  52 S9        30.16S
SPARTA         CLEAR     47  36  65 SE5         N/A
VIROQUA        CLEAR     48  36  63 SE6       30.17F
BOSCOBEL       CLEAR     40  36  86 E3        30.20F
PRAIRIE DU CHI PTCLDY    49  36  60 E7        30.18S
PLATTEVILLE    CLEAR     45  35  68 SE12      30.21F
$$

WIZ056-057-062-063-064-067-068-230400-
SOUTH CENTRAL WISCONSIN

CITY           SKY/WX    TMP DP  RH WIND       PRES   REMARKS
REEDSBURG      CLEAR     45  35  69 E3        30.20S
BARABOO/DELLS  CLEAR     43  35  73 CALM      30.21S
LONE ROCK      CLEAR     44  35  70 E8        30.21F
MINERAL POINT  CLEAR     45  34  65 SE6       30.21F
MADISON        PTCLDY    46  38  73 S10       30.24S
MIDDLETON      CLEAR     37  37  97 CALM      30.24S
WATERTOWN      CLEAR     39  38  96 CALM      30.26S
MONROE         CLEAR     43  36  75 SE9       30.24S
JANESVILLE     CLEAR     41  37  87 SE5       30.26S
$$

WIZ051-052-058>065-066-070>072-230400-
SOUTHEAST WISCONSIN

CITY           SKY/WX    TMP DP  RH WIND       PRES   REMARKS
MILWAUKEE      CLEAR     41  35  79 S3        30.27S
WAUKESHA       CLEAR     36  34  93 SE6       30.28S WCI  31
MILWAUKEE/TIMM CLEAR     36  34  93 CALM      30.28S
RACINE         CLEAR     38  33  82 CALM      30.29S
BURLINGTON     CLEAR     33  33 100 CALM      30.27S FOG
KENOSHA        CLEAR     38  34  85 S5        30.28R WCI  34
FOND DU LAC    CLEAR     39  36  89 S7        30.25S WCI  34
SHEBOYGAN      FOG       31  30  96 CALM      30.27S VSB 1/2
WEST BEND      CLEAR     36  32  87 CALM      30.27S
JUNEAU         CLEAR     40  37  90 SE7       30.27R WCI  35
$$

LSZ147-162-230400-
LAKE SUPERIOR

STATION/POSITION TIME  TEMP    WIND        PRES    WAVE
                       AIR SEA DIR/SP/G            HT/PER
                 (UTC) (F)     (DEG/KT/KT) (MB)    (FT/S)
W MID LAKE BUOY  0250   49 46  160/ 10/ 12 1019.3F   2/ 3
DEVILS ISLAND    0300   54     180/  7/  8 1018.7F
PORT WING        0240   52     220/  2/  5 1018.3F
SAXON HARBOR     0200   56     190/  9/ 16 1018.3F
$$

LMZ867-665-643>646-230400-
LAKE MICHIGAN

STATION/POSITION TIME  TEMP    WIND        PRES    WAVE
                       AIR SEA DIR/SP/G            HT/PER
                 (UTC) (F)     (DEG/KT/KT) (MB)    (FT/S)
CHAMBERS ISLAND  0240   42     150/  4/  6 1025.1S
N MID LAKE BUOY  0250   46 51  170/ 10/ 12 1025.7S   0
NORTHPORT PIER   0200   42     170/  4/  7 1025.1R
SISTER BAY       0212          150/  9/ 11   N/A
ALGOMA LAKESHORE 0126          220/ 13/ 16   N/A
KEWAUNEE LAKESHO 0300   40     290/  3/  4 1024.1S
SHEBOYGAN LAKESH 0300   47 51  210/  7/ 10 1025.7S
PORT WASHINGTON  0200   48     160/  9/ 11 1025.7S
ATWATER BUOY     0300   48     160/  8/ 10 1025.9S
MILWAUKEE LAKESH 0300   47     200/  5/  7   N/A
S MID LAKE BUOY  0250   50 54  110/ 10/ 12 1025.7R   1
KENOSHA   LAKESH 0300   48     160/  8/  9 1025.1R
$$

TC  - TEMPERATURE IN CELSIUS
VSB - VISIBILITY IN STATUTE MILES
WCI - WIND CHILL INDEX
HX  - HEAT INDEX




USA.gov is the U.S. government's official web portal to all federal, state and local government web resources and services.